| time (UTC) | temp F | wind direction | speed MPH | gust MPH | rain 1hr in | rain 24hr in | rain mn in | humidity % | barometer mb |
| 20260508041554 | 66 | 272 | 1.0 | 8.0 | 0.00 | 0.00 | 0.00 | 67 | 1021.0 |
| 20260508040521 | 66 | 275 | 1.0 | 8.0 | 0.00 | 0.00 | 0.00 | 64 | 1020.9 |
| 20260508040020 | 66 | 307 | 1.0 | 10.0 | 0.00 | 0.00 | 0.00 | 62 | 1020.8 |
| 20260508035524 | 67 | 290 | 4.0 | 12.0 | 0.00 | 0.00 | 0.00 | 58 | 1020.8 |
| 20260508035020 | 67 | 314 | 2.0 | 12.0 | 0.00 | 0.00 | 0.00 | 55 | 1020.9 |
| 20260508034526 | 67 | 294 | 3.0 | 12.0 | 0.00 | 0.00 | 0.00 | 57 | 1020.9 |
| 20260508034020 | 68 | 322 | 1.0 | 9.0 | 0.00 | 0.00 | 0.00 | 65 | 1020.7 |
| 20260508033520 | 68 | 267 | 2.0 | 10.0 | 0.00 | 0.00 | 0.00 | 66 | 1020.6 |
| 20260508033020 | 68 | 326 | 1.0 | 10.0 | 0.00 | 0.00 | 0.00 | 66 | 1020.6 |
| 20260508032520 | 69 | 333 | 2.0 | 8.0 | 0.00 | 0.00 | 0.00 | 64 | 1020.5 |
| 20260508032020 | 69 | 248 | 0.0 | 8.0 | 0.00 | 0.00 | 0.00 | 59 | 1020.4 |
| 20260508031520 | 69 | 257 | 1.0 | 8.0 | 0.00 | 0.00 | 0.00 | 55 | 1020.4 |
| 20260508030550 | 69 | 339 | 1.0 | 9.0 | 0.00 | 0.00 | 0.00 | 49 | 1020.3 |
| 20260508030055 | 70 | 334 | 2.0 | 12.0 | 0.00 | 0.00 | 0.00 | 50 | 1020.3 |
| 20260508025549 | 70 | 316 | 2.0 | 12.0 | 0.00 | 0.00 | 0.00 | 50 | 1020.2 |
| 20260508025050 | 70 | 297 | 1.0 | 9.0 | 0.00 | 0.00 | 0.00 | 59 | 1020.3 |
| 20260508024550 | 70 | 304 | 2.0 | 8.0 | 0.00 | 0.00 | 0.00 | 50 | 1020.1 |
| 20260508024051 | 70 | 312 | 0.0 | 9.0 | 0.00 | 0.00 | 0.00 | 59 | 1020.2 |
| 20260508023551 | 71 | 299 | 1.0 | 10.0 | 0.00 | 0.00 | 0.00 | 60 | 1020.2 |
| 20260508023050 | 71 | 294 | 2.0 | 9.0 | 0.00 | 0.00 | 0.00 | 65 | 1020.2 |
| 20260508022551 | 72 | 241 | 0.0 | 13.0 | 0.00 | 0.00 | 0.00 | 61 | 1020.1 |
| 20260508022049 | 72 | 211 | 1.0 | 8.0 | 0.00 | 0.00 | 0.00 | 60 | 1020.1 |
| 20260508021549 | 72 | 184 | 1.0 | 10.0 | 0.00 | 0.00 | 0.00 | 60 | 1020.1 |
| 20260508020550 | 73 | 238 | 3.0 | 10.0 | 0.00 | 0.00 | 0.00 | 58 | 1020.1 |
| 20260508020050 | 73 | 224 | 1.0 | 10.0 | 0.00 | 0.00 | 0.00 | 60 | 1020.0 |
| 20260508015548 | 73 | 206 | 3.0 | 10.0 | 0.00 | 0.00 | 0.00 | 59 | 1020.0 |
| 20260508015048 | 74 | 201 | 0.0 | 11.0 | 0.00 | 0.00 | 0.00 | 59 | 1020.0 |
| 20260508014548 | 74 | 203 | 3.0 | 11.0 | 0.00 | 0.00 | 0.00 | 58 | 1020.0 |
| 20260508014048 | 75 | 197 | 2.0 | 10.0 | 0.00 | 0.00 | 0.00 | 58 | 1020.0 |
| 20260508013547 | 75 | 171 | 0.0 | 8.0 | 0.00 | 0.00 | 0.00 | 56 | 1020.0 |
| 20260508013048 | 75 | 178 | 0.0 | 8.0 | 0.00 | 0.00 | 0.00 | 56 | 1020.0 |
| 20260508012548 | 76 | 230 | 0.0 | 10.0 | 0.00 | 0.00 | 0.00 | 56 | 1020.0 |
| 20260508012052 | 76 | 220 | 2.0 | 6.0 | 0.00 | 0.00 | 0.00 | 55 | 1019.9 |
| 20260508011551 | 77 | 186 | 0.0 | 10.0 | 0.00 | 0.00 | 0.00 | 55 | 1020.0 |
| 20260508010551 | 77 | 287 | 2.0 | 15.0 | 0.00 | 0.00 | 0.00 | 53 | 1020.0 |
| 20260508010049 | 77 | 200 | 3.0 | 15.0 | 0.00 | 0.00 | 0.00 | 51 | 1020.1 |
| 20260508005551 | 78 | 198 | 4.0 | 9.0 | 0.00 | 0.00 | 0.00 | 51 | 1020.1 |
| 20260508005052 | 78 | 174 | 3.0 | 9.0 | 0.00 | 0.00 | 0.00 | 50 | 1020.1 |
| 20260508004549 | 79 | 182 | 1.0 | 7.0 | 0.00 | 0.00 | 0.00 | 48 | 1020.1 |
| 20260508004048 | 80 | 151 | 1.0 | 7.0 | 0.00 | 0.00 | 0.00 | 46 | 1020.0 |
| 20260508003548 | 80 | 193 | 0.0 | 6.0 | 0.00 | 0.00 | 0.00 | 46 | 1020.1 |
| 20260508003048 | 80 | 259 | 0.0 | 5.0 | 0.00 | 0.00 | 0.00 | 47 | 1020.1 |
| 20260508002547 | 80 | 309 | 0.0 | 5.0 | 0.00 | 0.00 | 0.00 | 46 | 1020.1 |
| 20260508002049 | 80 | 309 | 2.0 | 5.0 | 0.00 | 0.00 | 0.00 | 44 | 1020.1 |
| 20260508001547 | 81 | 305 | 1.0 | 5.0 | 0.00 | 0.00 | 0.00 | 41 | 1020.1 |
| 20260508000545 | 81 | 289 | 0.0 | 1.0 | 0.00 | 0.00 | 0.00 | 41 | 1020.1 |
| 20260508000101 | 81 | 290 | 0.0 | 1.0 | 0.00 | 0.00 | 0.00 | 38 | 1020.2 |
| 20260507235551 | 80 | 266 | 0.0 | 2.0 | 0.00 | 0.00 | 0.00 | 39 | 1020.1 |
| 20260507235045 | 80 | 312 | 0.0 | 4.0 | 0.00 | 0.00 | 0.00 | 38 | 1020.2 |
| 20260507234548 | 79 | 305 | 0.0 | 5.0 | 0.00 | 0.00 | 0.00 | 39 | 1020.2 |
| 20260507234047 | 80 | 302 | 1.0 | 5.0 | 0.00 | 0.00 | 0.00 | 38 | 1020.3 |
| 20260507233544 | 80 | 304 | 0.0 | 4.0 | 0.00 | 0.00 | 0.00 | 37 | 1020.3 |
| 20260507233044 | 80 | 305 | 0.0 | 6.0 | 0.00 | 0.00 | 0.00 | 37 | 1020.3 |
| 20260507232543 | 80 | 308 | 1.0 | 6.0 | 0.00 | 0.00 | 0.00 | 36 | 1020.3 |
| 20260507232042 | 81 | 306 | 0.0 | 6.0 | 0.00 | 0.00 | 0.00 | 37 | 1020.4 |
| 20260507231546 | 81 | 301 | 0.0 | 6.0 | 0.00 | 0.00 | 0.00 | 36 | 1020.5 |
| 20260507230547 | 81 | 319 | 0.0 | 5.0 | 0.00 | 0.00 | 0.00 | 35 | 1020.5 |
| 20260507230042 | 82 | 303 | 0.0 | 4.0 | 0.00 | 0.00 | 0.00 | 35 | 1020.6 |
| 20260507225541 | 82 | 301 | 0.0 | 4.0 | 0.00 | 0.00 | 0.00 | 34 | 1020.6 |
| 20260507225041 | 81 | 290 | 0.0 | 3.0 | 0.00 | 0.00 | 0.00 | 35 | 1020.7 |
| 20260507224540 | 82 | 298 | 0.0 | 3.0 | 0.00 | 0.00 | 0.00 | 34 | 1020.8 |
| 20260507224039 | 82 | 296 | 0.0 | 3.0 | 0.00 | 0.00 | 0.00 | 34 | 1020.9 |
| 20260507223540 | 81 | 293 | 0.0 | 4.0 | 0.00 | 0.00 | 0.00 | 42 | 1020.8 |
| 20260507223039 | 81 | 293 | 0.0 | 4.0 | 0.00 | 0.00 | 0.00 | 35 | 1020.9 |
| 20260507222538 | 80 | 253 | 0.0 | 3.0 | 0.00 | 0.00 | 0.00 | 41 | 1020.9 |
| 20260507222038 | 80 | 253 | 0.0 | 5.0 | 0.00 | 0.00 | 0.00 | 41 | 1021.0 |
| 20260507221536 | 81 | 251 | 0.0 | 3.0 | 0.00 | 0.00 | 0.00 | 35 | 1021.1 |
| 20260507220539 | 80 | 247 | 0.0 | 2.0 | 0.00 | 0.00 | 0.00 | 34 | 1021.3 |
| 20260507220035 | 80 | 247 | 0.0 | 5.0 | 0.00 | 0.00 | 0.00 | 29 | 1021.3 |
| 20260507215535 | 81 | 220 | 0.0 | 2.0 | 0.00 | 0.00 | 0.00 | 33 | 1021.4 |
| 20260507215035 | 81 | 212 | 0.0 | 2.0 | 0.00 | 0.00 | 0.00 | 27 | 1021.4 |
| 20260507214536 | 81 | 151 | 0.0 | 1.0 | 0.00 | 0.00 | 0.00 | 35 | 1021.5 |
| 20260507214032 | 81 | 151 | 0.0 | 0.0 | 0.00 | 0.00 | 0.00 | 35 | 1021.6 |
| 20260507213533 | 80 | 151 | 0.0 | 3.0 | 0.00 | 0.00 | 0.00 | 37 | 1021.7 |
| 20260507213037 | 80 | 146 | 0.0 | 3.0 | 0.00 | 0.00 | 0.00 | 33 | 1021.7 |
| 20260507212530 | 81 | 24 | 0.0 | 1.0 | 0.00 | 0.00 | 0.00 | 37 | 1021.8 |
| 20260507212032 | 80 | 9 | 0.0 | 0.0 | 0.00 | 0.00 | 0.00 | 35 | 1021.8 |
| 20260507211541 | 80 | 9 | 0.0 | 1.0 | 0.00 | 0.00 | 0.00 | 30 | 1021.9 |
| 20260507210528 | 80 | 25 | 0.0 | 0.0 | 0.00 | 0.00 | 0.00 | 35 | 1022.0 |
| 20260507210027 | 80 | 44 | 0.0 | 0.0 | 0.00 | 0.00 | 0.00 | 42 | 1022.0 |
| 20260507205526 | 79 | 47 | 0.0 | 0.0 | 0.00 | 0.00 | 0.00 | 49 | 1022.0 |
| 20260507205026 | 78 | 47 | 0.0 | 0.0 | 0.00 | 0.00 | 0.00 | 51 | 1022.0 |
| 20260507204525 | 78 | 48 | 0.0 | 3.0 | 0.00 | 0.00 | 0.00 | 51 | 1022.1 |
| 20260507204024 | 79 | 65 | 0.0 | 4.0 | 0.00 | 0.00 | 0.00 | 51 | 1022.1 |
| 20260507203523 | 78 | 70 | 0.0 | 4.0 | 0.00 | 0.00 | 0.00 | 50 | 1022.2 |
| 20260507203022 | 78 | 76 | 0.0 | 2.0 | 0.00 | 0.00 | 0.00 | 51 | 1022.3 |
| 20260507202521 | 78 | 78 | 0.0 | 4.0 | 0.00 | 0.00 | 0.00 | 51 | 1022.4 |
| 20260507202021 | 78 | 91 | 0.0 | 4.0 | 0.00 | 0.00 | 0.00 | 51 | 1022.3 |
| 20260507201521 | 78 | 88 | 0.0 | 4.0 | 0.00 | 0.00 | 0.00 | 53 | 1022.4 |
| 20260507200521 | 78 | 90 | 0.0 | 3.0 | 0.00 | 0.00 | 0.00 | 53 | 1022.5 |
| 20260507200020 | 77 | 90 | 0.0 | 5.0 | 0.00 | 0.00 | 0.00 | 55 | 1022.5 |
| 20260507195518 | 76 | 90 | 1.0 | 6.0 | 0.00 | 0.00 | 0.00 | 56 | 1022.5 |
| 20260507195022 | 76 | 90 | 1.0 | 6.0 | 0.00 | 0.00 | 0.00 | 57 | 1022.6 |
| 20260507194517 | 77 | 85 | 0.0 | 5.0 | 0.00 | 0.00 | 0.00 | 55 | 1022.6 |
| 20260507194017 | 76 | 83 | 0.0 | 6.0 | 0.00 | 0.00 | 0.00 | 56 | 1022.7 |
| 20260507193517 | 77 | 85 | 1.0 | 6.0 | 0.00 | 0.00 | 0.00 | 55 | 1022.7 |
| 20260507193021 | 77 | 95 | 1.0 | 5.0 | 0.00 | 0.00 | 0.00 | 56 | 1022.8 |
| 20260507192515 | 76 | 101 | 1.0 | 5.0 | 0.00 | 0.00 | 0.00 | 56 | 1022.8 |
| 20260507192013 | 76 | 97 | 0.0 | 4.0 | 0.00 | 0.00 | 0.00 | 55 | 1022.9 |
| 20260507191513 | 76 | 101 | 0.0 | 3.0 | 0.00 | 0.00 | 0.00 | 56 | 1022.9 |
| 20260507190515 | 75 | 97 | 0.0 | 5.0 | 0.00 | 0.00 | 0.00 | 60 | 1023.1 |
| 20260507190014 | 74 | 99 | 1.0 | 5.0 | 0.00 | 0.00 | 0.00 | 60 | 1023.2 |
| 20260507185508 | 73 | 87 | 0.0 | 7.0 | 0.00 | 0.00 | 0.00 | 62 | 1023.3 |
| 20260507185011 | 73 | 103 | 3.0 | 8.0 | 0.00 | 0.00 | 0.00 | 61 | 1023.3 |
| 20260507184507 | 73 | 95 | 2.0 | 8.0 | 0.00 | 0.00 | 0.00 | 62 | 1023.4 |
| 20260507184007 | 73 | 88 | 3.0 | 7.0 | 0.00 | 0.00 | 0.00 | 61 | 1023.4 |
| 20260507183510 | 72 | 95 | 2.0 | 7.0 | 0.00 | 0.00 | 0.00 | 61 | 1023.4 |
| 20260507183009 | 73 | 95 | 3.0 | 7.0 | 0.00 | 0.00 | 0.00 | 62 | 1023.5 |
| 20260507182506 | 72 | 94 | 1.0 | 8.0 | 0.00 | 0.00 | 0.00 | 61 | 1023.5 |
| 20260507182004 | 71 | 100 | 2.0 | 8.0 | 0.00 | 0.00 | 0.00 | 64 | 1023.5 |
| 20260507181505 | 72 | 103 | 3.0 | 7.0 | 0.00 | 0.00 | 0.00 | 64 | 1023.5 |
| 20260507180505 | 72 | 101 | 1.0 | 6.0 | 0.00 | 0.00 | 0.00 | 64 | 1023.5 |
| 20260507180004 | 71 | 101 | 1.0 | 6.0 | 0.00 | 0.00 | 0.00 | 66 | 1023.6 |
| 20260507175503 | 70 | 88 | 1.0 | 6.0 | 0.00 | 0.00 | 0.00 | 68 | 1023.6 |
| 20260507175101 | 69 | 99 | 1.0 | 7.0 | 0.00 | 0.00 | 0.00 | 70 | 1023.6 |
| 20260507174637 | 69 | 105 | 4.0 | 7.0 | 0.00 | 0.00 | 0.00 | 69 | 1023.6 |
| 20260507174059 | 69 | 106 | 2.0 | 7.0 | 0.00 | 0.00 | 0.00 | 70 | 1023.6 |
| 20260507173559 | 68 | 100 | 3.0 | 7.0 | 0.00 | 0.00 | 0.00 | 71 | 1023.7 |
| 20260507173059 | 68 | 91 | 2.0 | 7.0 | 0.00 | 0.00 | 0.00 | 71 | 1023.6 |
| 20260507172600 | 68 | 96 | 1.0 | 7.0 | 0.00 | 0.00 | 0.00 | 71 | 1023.6 |
| 20260507172059 | 69 | 103 | 1.0 | 7.0 | 0.00 | 0.00 | 0.00 | 70 | 1023.7 |
| 20260507171619 | 69 | 92 | 1.0 | 5.0 | 0.00 | 0.00 | 0.00 | 70 | 1023.8 |
| 20260507170506 | 67 | 86 | 0.0 | 3.0 | 0.00 | 0.00 | 0.00 | 74 | 1023.9 |
| 20260507170005 | 67 | 84 | 0.0 | 2.0 | 0.00 | 0.00 | 0.00 | 73 | 1023.9 |
| 20260507165502 | 65 | 76 | 0.0 | 4.0 | 0.00 | 0.00 | 0.00 | 77 | 1023.8 |
| 20260507165002 | 65 | 75 | 0.0 | 4.0 | 0.00 | 0.00 | 0.00 | 77 | 1023.9 |
| 20260507164601 | 64 | 57 | 0.0 | 1.0 | 0.00 | 0.00 | 0.00 | 79 | 1023.9 |
| 20260507164058 | 63 | 265 | 0.0 | 0.0 | 0.00 | 0.00 | 0.00 | 81 | 1023.9 |
| 20260507163557 | 63 | 261 | 0.0 | 0.0 | 0.00 | 0.00 | 0.00 | 82 | 1023.9 |
| 20260507163056 | 62 | 261 | 0.0 | 0.0 | 0.00 | 0.00 | 0.00 | 83 | 1023.9 |
| 20260507162554 | 61 | 261 | 0.0 | 0.0 | 0.00 | 0.00 | 0.00 | 84 | 1023.9 |
| 20260507162056 | 61 | 261 | 0.0 | 1.0 | 0.00 | 0.00 | 0.00 | 84 | 1024.0 |
| 20260507161555 | 61 | 261 | 0.0 | 4.0 | 0.00 | 0.00 | 0.00 | 84 | 1024.0 |
| 20260507160546 | 60 | 317 | 0.0 | 5.0 | 0.00 | 0.00 | 0.00 | 86 | 1024.1 |
| 20260507160109 | 60 | 291 | 0.0 | 5.0 | 0.00 | 0.00 | 0.00 | 85 | 1024.0 |
| 20260507155543 | 60 | 242 | 0.0 | 5.0 | 0.00 | 0.00 | 0.00 | 85 | 1024.0 |
| 20260507155046 | 60 | 232 | 0.0 | 5.0 | 0.00 | 0.00 | 0.00 | 85 | 1024.0 |
| 20260507154543 | 60 | 231 | 0.0 | 5.0 | 0.00 | 0.00 | 0.00 | 84 | 1024.0 |
| 20260507154044 | 61 | 157 | 0.0 | 2.0 | 0.00 | 0.00 | 0.00 | 84 | 1023.9 |
| 20260507153544 | 61 | 141 | 0.0 | 0.0 | 0.00 | 0.00 | 0.00 | 84 | 1023.9 |
| 20260507153042 | 61 | 136 | 0.0 | 3.0 | 0.00 | 0.00 | 0.00 | 85 | 1023.9 |
| 20260507152546 | 60 | 135 | 0.0 | 3.0 | 0.00 | 0.00 | 0.00 | 87 | 1023.9 |
| 20260507152042 | 60 | 100 | 0.0 | 0.0 | 0.00 | 0.00 | 0.00 | 89 | 1023.8 |
| 20260507151539 | 59 | 100 | 0.0 | 0.0 | 0.00 | 0.00 | 0.00 | 90 | 1023.9 |
| 20260507150537 | 57 | 100 | 0.0 | 0.0 | 0.00 | 0.00 | 0.00 | 93 | 1024.0 |
| 20260507150038 | 57 | 100 | 0.0 | 0.0 | 0.00 | 0.00 | 0.00 | 93 | 1024.0 |
| 20260507145540 | 57 | 100 | 0.0 | 0.0 | 0.00 | 0.00 | 0.00 | 93 | 1024.0 |
| 20260507145037 | 56 | 100 | 0.0 | 0.0 | 0.00 | 0.00 | 0.00 | 94 | 1023.9 |
| 20260507144536 | 56 | 100 | 0.0 | 0.0 | 0.00 | 0.00 | 0.00 | 94 | 1023.8 |
| 20260507144036 | 56 | 100 | 0.0 | 0.0 | 0.00 | 0.00 | 0.00 | 94 | 1023.8 |
| 20260507143534 | 56 | 100 | 0.0 | 0.0 | 0.00 | 0.00 | 0.00 | 94 | 1023.7 |
| 20260507143034 | 56 | 100 | 0.0 | 0.0 | 0.00 | 0.00 | 0.00 | 94 | 1023.7 |
| 20260507142534 | 55 | 100 | 0.0 | 0.0 | 0.00 | 0.00 | 0.00 | 94 | 1023.7 |
| 20260507142034 | 55 | 100 | 0.0 | 0.0 | 0.00 | 0.00 | 0.00 | 94 | 1023.6 |
| 20260507141534 | 55 | 100 | 0.0 | 0.0 | 0.00 | 0.00 | 0.00 | 94 | 1023.6 |
| 20260507140535 | 55 | 100 | 0.0 | 0.0 | 0.00 | 0.00 | 0.00 | 94 | 1023.5 |
| 20260507140043 | 55 | 100 | 0.0 | 0.0 | 0.00 | 0.00 | 0.00 | 94 | 1023.5 |
| 20260507135533 | 55 | 100 | 0.0 | 0.0 | 0.00 | 0.00 | 0.00 | 94 | 1023.4 |
| 20260507135032 | 55 | 100 | 0.0 | 0.0 | 0.00 | 0.00 | 0.00 | 94 | 1023.3 |
| 20260507134532 | 55 | 100 | 0.0 | 0.0 | 0.00 | 0.00 | 0.00 | 94 | 1023.3 |
| 20260507134031 | 55 | 100 | 0.0 | 0.0 | 0.00 | 0.00 | 0.00 | 94 | 1023.2 |
| 20260507133532 | 55 | 100 | 0.0 | 0.0 | 0.00 | 0.00 | 0.00 | 94 | 1023.2 |
| 20260507133034 | 55 | 100 | 0.0 | 0.0 | 0.00 | 0.00 | 0.00 | 94 | 1023.1 |
| 20260507132531 | 55 | 100 | 0.0 | 0.0 | 0.00 | 0.00 | 0.00 | 94 | 1023.1 |
| 20260507132031 | 55 | 100 | 0.0 | 0.0 | 0.00 | 0.00 | 0.00 | 94 | 1023.0 |
| 20260507131603 | 54 | 100 | 0.0 | 0.0 | 0.00 | 0.00 | 0.00 | 94 | 1023.0 |
| 20260507130530 | 54 | 100 | 0.0 | 0.0 | 0.00 | 0.00 | 0.00 | 94 | 1023.0 |
| 20260507130030 | 54 | 100 | 0.0 | 0.0 | 0.00 | 0.00 | 0.00 | 94 | 1023.0 |
| 20260507125530 | 54 | 100 | 0.0 | 0.0 | 0.00 | 0.00 | 0.00 | 94 | 1022.9 |
| 20260507125030 | 54 | 100 | 0.0 | 0.0 | 0.00 | 0.00 | 0.00 | 93 | 1022.9 |
| 20260507124532 | 54 | 100 | 0.0 | 0.0 | 0.00 | 0.00 | 0.00 | 93 | 1022.9 |
| 20260507124029 | 55 | 100 | 0.0 | 0.0 | 0.00 | 0.00 | 0.00 | 93 | 1023.0 |
| 20260507123529 | 55 | 100 | 0.0 | 0.0 | 0.00 | 0.00 | 0.00 | 93 | 1023.0 |
| 20260507123038 | 55 | 100 | 0.0 | 0.0 | 0.00 | 0.00 | 0.00 | 93 | 1022.9 |
| 20260507122528 | 55 | 100 | 0.0 | 0.0 | 0.00 | 0.00 | 0.00 | 93 | 1022.9 |
| 20260507122028 | 55 | 100 | 0.0 | 0.0 | 0.00 | 0.00 | 0.00 | 93 | 1023.0 |
| 20260507121528 | 55 | 100 | 0.0 | 0.0 | 0.00 | 0.00 | 0.00 | 93 | 1022.9 |
| 20260507120536 | 55 | 100 | 0.0 | 0.0 | 0.00 | 0.00 | 0.00 | 93 | 1023.0 |
| 20260507120040 | 55 | 100 | 0.0 | 0.0 | 0.00 | 0.00 | 0.00 | 93 | 1022.9 |
| 20260507115536 | 55 | 100 | 0.0 | 0.0 | 0.00 | 0.00 | 0.00 | 93 | 1023.0 |
| 20260507115036 | 55 | 100 | 0.0 | 0.0 | 0.00 | 0.00 | 0.00 | 92 | 1023.0 |
| 20260507114535 | 55 | 100 | 0.0 | 0.0 | 0.00 | 0.00 | 0.00 | 91 | 1023.0 |
| 20260507114042 | 55 | 100 | 0.0 | 0.0 | 0.00 | 0.00 | 0.00 | 92 | 1023.0 |
| 20260507113535 | 55 | 100 | 0.0 | 0.0 | 0.00 | 0.00 | 0.00 | 92 | 1023.1 |
| 20260507113100 | 55 | 100 | 0.0 | 0.0 | 0.00 | 0.00 | 0.00 | 91 | 1023.0 |
| 20260507112533 | 56 | 99 | 0.0 | 0.0 | 0.00 | 0.00 | 0.00 | 91 | 1023.0 |
| 20260507112034 | 56 | 100 | 0.0 | 0.0 | 0.00 | 0.00 | 0.00 | 91 | 1023.1 |
| 20260507111533 | 56 | 100 | 0.0 | 0.0 | 0.00 | 0.00 | 0.00 | 91 | 1023.1 |
| 20260507110525 | 56 | 100 | 0.0 | 0.0 | 0.00 | 0.00 | 0.00 | 91 | 1023.1 |
| 20260507110024 | 56 | 100 | 0.0 | 0.0 | 0.00 | 0.00 | 0.00 | 90 | 1023.1 |
| 20260507105524 | 56 | 100 | 0.0 | 0.0 | 0.00 | 0.00 | 0.00 | 90 | 1023.1 |
| 20260507105024 | 56 | 100 | 0.0 | 0.0 | 0.00 | 0.00 | 0.00 | 90 | 1023.1 |
| 20260507104526 | 56 | 100 | 0.0 | 3.0 | 0.00 | 0.00 | 0.00 | 89 | 1023.1 |
| 20260507104024 | 57 | 99 | 0.0 | 5.0 | 0.00 | 0.00 | 0.00 | 89 | 1023.1 |
| 20260507103524 | 57 | 101 | 2.0 | 5.0 | 0.00 | 0.00 | 0.00 | 89 | 1023.0 |
| 20260507103023 | 57 | 101 | 0.0 | 6.0 | 0.00 | 0.00 | 0.00 | 89 | 1023.1 |
| 20260507102523 | 57 | 101 | 1.0 | 6.0 | 0.00 | 0.00 | 0.00 | 89 | 1023.2 |
| 20260507102023 | 57 | 100 | 0.0 | 5.0 | 0.00 | 0.00 | 0.00 | 89 | 1023.2 |
| 20260507101525 | 57 | 101 | 1.0 | 6.0 | 0.00 | 0.00 | 0.00 | 89 | 1023.2 |
| 20260507100519 | 57 | 99 | 2.0 | 5.0 | 0.00 | 0.00 | 0.00 | 89 | 1023.2 |
| 20260507100031 | 57 | 96 | 0.0 | 3.0 | 0.00 | 0.00 | 0.00 | 90 | 1023.2 |
| 20260507095521 | 57 | 96 | 0.0 | 3.0 | 0.00 | 0.00 | 0.00 | 89 | 1023.2 |
| 20260507095020 | 57 | 97 | 0.0 | 3.0 | 0.00 | 0.00 | 0.00 | 90 | 1023.2 |
| 20260507094518 | 57 | 97 | 0.0 | 4.0 | 0.00 | 0.00 | 0.00 | 90 | 1023.3 |
| 20260507094017 | 57 | 97 | 0.0 | 4.0 | 0.00 | 0.00 | 0.00 | 89 | 1023.4 |
| 20260507093516 | 57 | 98 | 0.0 | 4.0 | 0.00 | 0.00 | 0.00 | 89 | 1023.4 |
| 20260507093017 | 57 | 98 | 0.0 | 4.0 | 0.00 | 0.00 | 0.00 | 89 | 1023.4 |
| 20260507092517 | 57 | 98 | 0.0 | 2.0 | 0.00 | 0.00 | 0.00 | 88 | 1023.4 |
| 20260507092017 | 57 | 98 | 0.0 | 5.0 | 0.00 | 0.00 | 0.00 | 88 | 1023.4 |
| 20260507091516 | 57 | 99 | 0.0 | 5.0 | 0.00 | 0.00 | 0.00 | 88 | 1023.4 |
| 20260507090515 | 57 | 54 | 0.0 | 0.0 | 0.00 | 0.00 | 0.00 | 88 | 1023.5 |
| 20260507090015 | 58 | 294 | 0.0 | 0.0 | 0.00 | 0.00 | 0.00 | 87 | 1023.5 |
| 20260507085515 | 58 | 292 | 0.0 | 0.0 | 0.00 | 0.00 | 0.00 | 87 | 1023.5 |
| 20260507085015 | 58 | 292 | 0.0 | 0.0 | 0.00 | 0.00 | 0.00 | 86 | 1023.5 |
| 20260507084535 | 58 | 292 | 0.0 | 0.0 | 0.00 | 0.00 | 0.00 | 86 | 1023.5 |
| 20260507084016 | 57 | 292 | 0.0 | 0.0 | 0.00 | 0.00 | 0.00 | 85 | 1023.5 |
| 20260507083514 | 57 | 292 | 0.0 | 0.0 | 0.00 | 0.00 | 0.00 | 85 | 1023.5 |
| 20260507083021 | 58 | 292 | 0.0 | 0.0 | 0.00 | 0.00 | 0.00 | 85 | 1023.5 |
| 20260507082516 | 58 | 292 | 0.0 | 0.0 | 0.00 | 0.00 | 0.00 | 84 | 1023.4 |
| 20260507082014 | 58 | 292 | 0.0 | 0.0 | 0.00 | 0.00 | 0.00 | 84 | 1023.4 |
| 20260507081514 | 58 | 292 | 0.0 | 0.0 | 0.00 | 0.00 | 0.00 | 83 | 1023.4 |
| 20260507080515 | 58 | 292 | 0.0 | 0.0 | 0.00 | 0.00 | 0.00 | 83 | 1023.4 |
| 20260507080015 | 58 | 292 | 0.0 | 0.0 | 0.00 | 0.00 | 0.00 | 82 | 1023.4 |
| 20260507075513 | 59 | 292 | 0.0 | 0.0 | 0.00 | 0.00 | 0.00 | 83 | 1023.3 |
| 20260507075019 | 59 | 292 | 0.0 | 0.0 | 0.00 | 0.00 | 0.00 | 83 | 1023.3 |
| 20260507074513 | 59 | 292 | 0.0 | 0.0 | 0.00 | 0.00 | 0.00 | 83 | 1023.3 |
| 20260507074014 | 59 | 292 | 0.0 | 2.0 | 0.00 | 0.00 | 0.00 | 83 | 1023.3 |
| 20260507073516 | 59 | 292 | 0.0 | 2.0 | 0.00 | 0.00 | 0.00 | 83 | 1023.3 |
| 20260507073013 | 59 | 316 | 0.0 | 2.0 | 0.00 | 0.00 | 0.00 | 82 | 1023.3 |
| 20260507072514 | 59 | 317 | 0.0 | 3.0 | 0.00 | 0.00 | 0.00 | 82 | 1023.2 |
| 20260507072015 | 59 | 311 | 0.0 | 3.0 | 0.00 | 0.00 | 0.00 | 82 | 1023.2 |
| 20260507071517 | 60 | 301 | 0.0 | 4.0 | 0.00 | 0.00 | 0.00 | 81 | 1023.2 |
| 20260507070513 | 60 | 287 | 0.0 | 6.0 | 0.00 | 0.00 | 0.00 | 80 | 1023.2 |
| 20260507070019 | 60 | 306 | 1.0 | 6.0 | 0.00 | 0.00 | 0.00 | 80 | 1023.1 |
| 20260507065512 | 60 | 280 | 2.0 | 7.0 | 0.00 | 0.00 | 0.00 | 80 | 1023.1 |
| 20260507065013 | 60 | 299 | 0.0 | 8.0 | 0.00 | 0.00 | 0.00 | 80 | 1023.1 |
| 20260507064512 | 60 | 292 | 2.0 | 8.0 | 0.00 | 0.00 | 0.00 | 79 | 1023.1 |
| 20260507064012 | 60 | 298 | 2.0 | 8.0 | 0.00 | 0.00 | 0.00 | 79 | 1023.1 |
| 20260507063516 | 60 | 310 | 0.0 | 7.0 | 0.00 | 0.00 | 0.00 | 79 | 1023.0 |
| 20260507063015 | 61 | 317 | 1.0 | 8.0 | 0.00 | 0.00 | 0.00 | 79 | 1023.0 |
| 20260507062511 | 61 | 271 | 1.0 | 8.0 | 0.00 | 0.00 | 0.00 | 78 | 1023.1 |
| 20260507062013 | 61 | 285 | 0.0 | 7.0 | 0.00 | 0.00 | 0.00 | 79 | 1023.0 |
| 20260507061513 | 61 | 298 | 0.0 | 7.0 | 0.00 | 0.00 | 0.00 | 78 | 1023.0 |
| 20260507060513 | 61 | 301 | 2.0 | 9.0 | 0.00 | 0.00 | 0.00 | 78 | 1023.0 |
| 20260507060013 | 61 | 280 | 1.0 | 9.0 | 0.00 | 0.00 | 0.00 | 78 | 1023.0 |
| 20260507055513 | 61 | 240 | 2.0 | 7.0 | 0.00 | 0.00 | 0.00 | 77 | 1023.0 |
| 20260507055012 | 62 | 291 | 2.0 | 9.0 | 0.00 | 0.00 | 0.00 | 77 | 1023.0 |
| 20260507054513 | 62 | 332 | 2.0 | 9.0 | 0.00 | 0.00 | 0.00 | 77 | 1023.0 |
| 20260507054013 | 62 | 223 | 1.0 | 8.0 | 0.00 | 0.00 | 0.00 | 77 | 1022.9 |
| 20260507053517 | 62 | 259 | 1.0 | 11.0 | 0.00 | 0.00 | 0.00 | 76 | 1023.0 |
| 20260507053012 | 62 | 307 | 1.0 | 11.0 | 0.00 | 0.00 | 0.00 | 76 | 1023.0 |
| 20260507052512 | 62 | 312 | 2.0 | 10.0 | 0.00 | 0.00 | 0.00 | 76 | 1023.0 |
| 20260507052012 | 62 | 268 | 1.0 | 7.0 | 0.00 | 0.00 | 0.00 | 77 | 1023.0 |
| 20260507051513 | 62 | 280 | 1.0 | 7.0 | 0.00 | 0.00 | 0.00 | 76 | 1023.0 |
| 20260507050511 | 63 | 311 | 2.0 | 10.0 | 0.00 | 0.00 | 0.00 | 77 | 1022.9 |
| 20260507050034 | 63 | 244 | 1.0 | 10.0 | 0.00 | 0.00 | 0.00 | 76 | 1022.9 |
| 20260507045511 | 63 | 288 | 3.0 | 10.0 | 0.00 | 0.00 | 0.00 | 75 | 1022.9 |
| 20260507045012 | 63 | 248 | 2.0 | 9.0 | 0.00 | 0.00 | 0.00 | 75 | 1022.9 |
| 20260507044519 | 63 | 308 | 3.0 | 10.0 | 0.00 | 0.00 | 0.00 | 73 | 1022.9 |
| 20260507044011 | 63 | 253 | 3.0 | 10.0 | 0.00 | 0.00 | 0.00 | 73 | 1022.9 |
| 20260507043512 | 64 | 239 | 2.0 | 10.0 | 0.00 | 0.00 | 0.00 | 74 | 1022.9 |
| 20260507043011 | 64 | 302 | 1.0 | 10.0 | 0.00 | 0.00 | 0.00 | 73 | 1022.8 |
| 20260507042511 | 64 | 294 | 2.0 | 11.0 | 0.00 | 0.00 | 0.00 | 73 | 1022.8 |
| 20260507042010 | 64 | 244 | 3.0 | 11.0 | 0.00 | 0.00 | 0.00 | 72 | 1022.8 |